Location: Braunsdorf
(50.7357°N, 11.9136°E)
Time: 11:08:52
(UTC+00:00)

Cosmos 1933 Rocket - Pass Details

Date: 17 February 2020
Orbit: 607 x 630 km, 82.5° (Epoch: 08 April)

Event Time Altitude Azimuth Distance (km) Brightness Sun altitude
Rises 05:43:51 0° 352° (N) 2,895 6.8 -6.7°
Reaches altitude 10° 05:46:07 10° 355° (N) 1,982 6.0 -6.3°
Maximum altitude 05:50:28 62° 77° (ENE) 689 4.2 -5.6°
Drops below altitude 10° 05:54:46 10° 159° (SSE) 1,957 6.6 -5.0°
Sets 05:56:59 0° 163° (SSE) 2,854 7.4 -4.6°
